Year,Month,Day,Hour,Minute,Value (Times are PST for temperature in C)
2022,03,29,00,00,6.40
2022,03,29,00,01,6.40
2022,03,29,00,02,6.40
2022,03,29,00,03,6.30
2022,03,29,00,04,6.30
2022,03,29,00,05,6.30
2022,03,29,00,06,6.30
2022,03,29,00,07,6.30
2022,03,29,00,08,6.30
2022,03,29,00,09,6.30
2022,03,29,00,10,6.30
2022,03,29,00,11,6.30
2022,03,29,00,12,6.20
2022,03,29,00,13,6.20
2022,03,29,00,14,6.20
2022,03,29,00,15,6.30
2022,03,29,00,16,6.30
2022,03,29,00,17,6.30
2022,03,29,00,18,6.30
2022,03,29,00,19,6.30
2022,03,29,00,20,6.30
2022,03,29,00,21,6.20
2022,03,29,00,22,6.20
2022,03,29,00,23,6.20
2022,03,29,00,24,6.20
2022,03,29,00,25,6.20
2022,03,29,00,26,6.20
2022,03,29,00,27,6.20
2022,03,29,00,28,6.20
2022,03,29,00,29,6.20
2022,03,29,00,30,6.10
2022,03,29,00,31,6.10
2022,03,29,00,32,6.10
2022,03,29,00,33,6.00
2022,03,29,00,34,6.00
2022,03,29,00,35,6.00
2022,03,29,00,36,6.00
2022,03,29,00,37,5.90
2022,03,29,00,38,5.90
2022,03,29,00,39,5.90
2022,03,29,00,40,5.90
2022,03,29,00,41,5.90
2022,03,29,00,42,5.80
2022,03,29,00,43,5.80
2022,03,29,00,44,5.80
2022,03,29,00,45,5.80
2022,03,29,00,46,5.80
2022,03,29,00,47,5.80
2022,03,29,00,48,5.80
2022,03,29,00,49,5.70
2022,03,29,00,50,5.70
2022,03,29,00,51,5.70
2022,03,29,00,52,5.70
2022,03,29,00,53,5.70
2022,03,29,00,54,5.70
2022,03,29,00,55,5.60
2022,03,29,00,56,5.60
2022,03,29,00,57,5.60
2022,03,29,00,58,5.60
2022,03,29,00,59,5.50
2022,03,29,01,00,5.50
2022,03,29,01,01,5.40
2022,03,29,01,02,5.40
2022,03,29,01,03,5.40
2022,03,29,01,04,5.30
2022,03,29,01,05,5.30
2022,03,29,01,06,5.30
2022,03,29,01,07,5.30
2022,03,29,01,08,5.30
2022,03,29,01,09,5.30
2022,03,29,01,10,5.30
2022,03,29,01,11,5.30
2022,03,29,01,12,5.30
2022,03,29,01,13,5.30
2022,03,29,01,14,5.30
2022,03,29,01,15,5.30
2022,03,29,01,16,5.30
2022,03,29,01,17,5.20
2022,03,29,01,18,5.20
2022,03,29,01,19,5.20
2022,03,29,01,20,5.20
2022,03,29,01,21,5.20
2022,03,29,01,22,5.20
2022,03,29,01,23,5.20
2022,03,29,01,24,5.20
2022,03,29,01,25,5.20
2022,03,29,01,26,5.10
2022,03,29,01,27,5.10
2022,03,29,01,28,5.10
2022,03,29,01,29,5.10
2022,03,29,01,30,5.10
2022,03,29,01,31,5.10
2022,03,29,01,32,5.00
2022,03,29,01,33,5.00
2022,03,29,01,34,5.00
2022,03,29,01,35,5.00
2022,03,29,01,36,4.90
2022,03,29,01,37,4.90
2022,03,29,01,38,4.90
2022,03,29,01,39,4.90
2022,03,29,01,40,4.90
2022,03,29,01,41,4.90
2022,03,29,01,42,4.80
2022,03,29,01,43,4.80
2022,03,29,01,44,4.80
2022,03,29,01,45,4.80
2022,03,29,01,46,4.80
2022,03,29,01,47,4.80
2022,03,29,01,48,4.90
2022,03,29,01,49,4.90
2022,03,29,01,50,4.80
2022,03,29,01,51,4.80
2022,03,29,01,52,4.80
2022,03,29,01,53,4.80
2022,03,29,01,54,4.80
2022,03,29,01,55,4.80
2022,03,29,01,56,4.80
2022,03,29,01,57,4.80
2022,03,29,01,58,4.80
2022,03,29,01,59,4.80
2022,03,29,02,00,4.80
2022,03,29,02,01,4.70
2022,03,29,02,02,4.70
2022,03,29,02,03,4.70
2022,03,29,02,04,4.70
2022,03,29,02,05,4.70
2022,03,29,02,06,4.70
2022,03,29,02,07,4.70
2022,03,29,02,08,4.70
2022,03,29,02,09,4.70
2022,03,29,02,10,4.60
2022,03,29,02,11,4.60
2022,03,29,02,12,4.60
2022,03,29,02,13,4.60
2022,03,29,02,14,4.60
2022,03,29,02,15,4.60
2022,03,29,02,16,4.60
2022,03,29,02,17,4.60
2022,03,29,02,18,4.50
2022,03,29,02,19,4.50
2022,03,29,02,20,4.50
2022,03,29,02,21,4.50
2022,03,29,02,22,4.50
2022,03,29,02,23,4.50
2022,03,29,02,24,4.40
2022,03,29,02,25,4.40
2022,03,29,02,26,4.40
2022,03,29,02,27,4.40
2022,03,29,02,28,4.40
2022,03,29,02,29,4.40
2022,03,29,02,30,4.40
2022,03,29,02,31,4.30
2022,03,29,02,32,4.30
2022,03,29,02,33,4.30
2022,03,29,02,34,4.30
2022,03,29,02,35,4.30
2022,03,29,02,36,4.30
2022,03,29,02,37,4.20
2022,03,29,02,38,4.20
2022,03,29,02,39,4.20
2022,03,29,02,40,4.20
2022,03,29,02,41,4.20
2022,03,29,02,42,4.20
2022,03,29,02,43,4.10
2022,03,29,02,44,4.10
2022,03,29,02,45,4.10
2022,03,29,02,46,4.10
2022,03,29,02,47,4.10
2022,03,29,02,48,4.10
2022,03,29,02,49,4.10
2022,03,29,02,50,4.10
2022,03,29,02,51,4.00
2022,03,29,02,52,4.00
2022,03,29,02,53,4.00
2022,03,29,02,54,4.00
2022,03,29,02,55,4.00
2022,03,29,02,56,4.00
2022,03,29,02,57,4.00
2022,03,29,02,58,4.00
2022,03,29,02,59,4.00
2022,03,29,03,00,4.00
2022,03,29,03,01,4.00
2022,03,29,03,02,3.90
2022,03,29,03,03,3.90
2022,03,29,03,04,3.90
2022,03,29,03,05,3.90
2022,03,29,03,06,3.90
2022,03,29,03,07,3.90
2022,03,29,03,08,3.90
2022,03,29,03,09,3.90
2022,03,29,03,10,3.90
2022,03,29,03,11,3.90
2022,03,29,03,12,3.80
2022,03,29,03,13,3.80
2022,03,29,03,14,3.80
2022,03,29,03,15,3.80
2022,03,29,03,16,3.80
2022,03,29,03,17,3.80
2022,03,29,03,18,3.80
2022,03,29,03,19,3.70
2022,03,29,03,20,3.70
2022,03,29,03,21,3.70
2022,03,29,03,22,3.70
2022,03,29,03,23,3.70
2022,03,29,03,24,3.70
2022,03,29,03,25,3.70
2022,03,29,03,26,3.70
2022,03,29,03,27,3.70
2022,03,29,03,28,3.70
2022,03,29,03,29,3.70
2022,03,29,03,30,3.70
2022,03,29,03,31,3.70
2022,03,29,03,32,3.70
2022,03,29,03,33,3.70
2022,03,29,03,34,3.70
2022,03,29,03,35,3.70
2022,03,29,03,36,3.70
2022,03,29,03,37,3.70
2022,03,29,03,38,3.70
2022,03,29,03,39,3.70
2022,03,29,03,40,3.60
2022,03,29,03,41,3.60
2022,03,29,03,42,3.60
2022,03,29,03,43,3.60
2022,03,29,03,44,3.60
2022,03,29,03,45,3.60
2022,03,29,03,46,3.60
2022,03,29,03,47,3.60
2022,03,29,03,48,3.50
2022,03,29,03,49,3.50
2022,03,29,03,50,3.50
2022,03,29,03,51,3.50
2022,03,29,03,52,3.50
2022,03,29,03,53,3.50
2022,03,29,03,54,3.50
2022,03,29,03,55,3.40
2022,03,29,03,56,3.40
2022,03,29,03,57,3.40
2022,03,29,03,58,3.40
2022,03,29,03,59,3.40
2022,03,29,04,00,3.40
2022,03,29,04,01,3.30
2022,03,29,04,02,3.30
2022,03,29,04,03,3.30
2022,03,29,04,04,3.30
2022,03,29,04,05,3.30
2022,03,29,04,06,3.30
2022,03,29,04,07,3.30
2022,03,29,04,08,3.30
2022,03,29,04,09,3.30
2022,03,29,04,10,3.20
2022,03,29,04,11,3.20
2022,03,29,04,12,3.20
2022,03,29,04,13,3.20
2022,03,29,04,14,3.20
2022,03,29,04,15,3.20
2022,03,29,04,16,3.20
2022,03,29,04,17,3.20
2022,03,29,04,18,3.20
2022,03,29,04,19,3.20
2022,03,29,04,20,3.20
2022,03,29,04,21,3.20
2022,03,29,04,22,3.20
2022,03,29,04,23,3.20
2022,03,29,04,24,3.20
2022,03,29,04,25,3.20
2022,03,29,04,26,3.20
2022,03,29,04,27,3.20
2022,03,29,04,28,3.10
2022,03,29,04,29,3.10
2022,03,29,04,30,3.10
2022,03,29,04,31,3.10
2022,03,29,04,32,3.10
2022,03,29,04,33,3.10
2022,03,29,04,34,3.10
2022,03,29,04,35,3.10
2022,03,29,04,36,3.10
2022,03,29,04,37,3.10
2022,03,29,04,38,3.10
2022,03,29,04,39,3.10
2022,03,29,04,40,3.10
2022,03,29,04,41,3.00
2022,03,29,04,42,3.00
2022,03,29,04,43,3.00
2022,03,29,04,44,3.00
2022,03,29,04,45,3.00
2022,03,29,04,46,3.00
2022,03,29,04,47,3.00
2022,03,29,04,48,2.90
2022,03,29,04,49,2.90
2022,03,29,04,50,2.90
2022,03,29,04,51,2.90
2022,03,29,04,52,2.90
2022,03,29,04,53,2.90
2022,03,29,04,54,2.90
2022,03,29,04,55,2.80
2022,03,29,04,56,2.80
2022,03,29,04,57,2.80
2022,03,29,04,58,2.80
2022,03,29,04,59,2.80
2022,03,29,05,00,2.80
2022,03,29,05,01,2.80
2022,03,29,05,02,2.80
2022,03,29,05,03,2.80
2022,03,29,05,04,2.80
2022,03,29,05,05,2.80
2022,03,29,05,06,2.80
2022,03,29,05,07,2.80
2022,03,29,05,08,2.80
2022,03,29,05,09,2.80
2022,03,29,05,10,2.80
2022,03,29,05,11,2.80
2022,03,29,05,12,2.70
2022,03,29,05,13,2.70
2022,03,29,05,14,2.70
2022,03,29,05,15,2.70
2022,03,29,05,16,2.70
2022,03,29,05,17,2.70
2022,03,29,05,18,2.70
2022,03,29,05,19,2.70
2022,03,29,05,20,2.70
2022,03,29,05,21,2.70
2022,03,29,05,22,2.70
2022,03,29,05,23,2.70
2022,03,29,05,24,2.70
2022,03,29,05,25,2.70
2022,03,29,05,26,2.70
2022,03,29,05,27,2.60
2022,03,29,05,28,2.60
2022,03,29,05,29,2.60
2022,03,29,05,30,2.60
2022,03,29,05,31,2.60
2022,03,29,05,32,2.60
2022,03,29,05,33,2.60
2022,03,29,05,34,2.60
2022,03,29,05,35,2.60
2022,03,29,05,36,2.60
2022,03,29,05,37,2.60
2022,03,29,05,38,2.60
2022,03,29,05,39,2.60
2022,03,29,05,40,2.50
2022,03,29,05,41,2.50
2022,03,29,05,42,2.50
2022,03,29,05,43,2.50
2022,03,29,05,44,2.50
2022,03,29,05,45,2.50
2022,03,29,05,46,2.50
2022,03,29,05,47,2.50
2022,03,29,05,48,2.50
2022,03,29,05,49,2.40
2022,03,29,05,50,2.40
2022,03,29,05,51,2.40
2022,03,29,05,52,2.40
2022,03,29,05,53,2.40
2022,03,29,05,54,2.40
2022,03,29,05,55,2.40
2022,03,29,05,56,2.40
2022,03,29,05,57,2.40
2022,03,29,05,58,2.40
2022,03,29,05,59,2.40
2022,03,29,06,00,2.40
2022,03,29,06,01,2.40
2022,03,29,06,02,2.40
2022,03,29,06,03,2.40
2022,03,29,06,04,2.40
2022,03,29,06,05,2.40
2022,03,29,06,06,2.40
2022,03,29,06,07,2.40
2022,03,29,06,08,2.40
2022,03,29,06,09,2.40
2022,03,29,06,10,2.40
2022,03,29,06,11,2.40
2022,03,29,06,12,2.40
2022,03,29,06,13,2.40
2022,03,29,06,14,2.40
2022,03,29,06,15,2.30
2022,03,29,06,16,2.30
2022,03,29,06,17,2.40
2022,03,29,06,18,2.40
2022,03,29,06,19,2.40
2022,03,29,06,20,2.40
2022,03,29,06,21,2.40
2022,03,29,06,22,2.40
2022,03,29,06,23,2.40
2022,03,29,06,24,2.40
2022,03,29,06,25,2.40
2022,03,29,06,26,2.40
2022,03,29,06,27,2.40
2022,03,29,06,28,2.40
2022,03,29,06,29,2.40
2022,03,29,06,30,2.40
2022,03,29,06,31,2.40
2022,03,29,06,32,2.40
2022,03,29,06,33,2.40
2022,03,29,06,34,2.40
2022,03,29,06,35,2.30
2022,03,29,06,36,2.30
2022,03,29,06,37,2.30
2022,03,29,06,38,2.30
2022,03,29,06,39,2.30
2022,03,29,06,40,2.30
2022,03,29,06,41,2.30
2022,03,29,06,42,2.30
2022,03,29,06,43,2.30
2022,03,29,06,44,2.30
2022,03,29,06,45,2.30
2022,03,29,06,46,2.30
2022,03,29,06,47,2.30
2022,03,29,06,48,2.30
2022,03,29,06,49,2.30
2022,03,29,06,50,2.30
2022,03,29,06,51,2.30
2022,03,29,06,52,2.30
2022,03,29,06,53,2.30
2022,03,29,06,54,2.30
2022,03,29,06,55,2.30
2022,03,29,06,56,2.30
2022,03,29,06,57,2.30
2022,03,29,06,58,2.30
2022,03,29,06,59,2.30
2022,03,29,07,00,2.30
2022,03,29,07,01,2.30
2022,03,29,07,02,2.30
2022,03,29,07,03,2.30
2022,03,29,07,04,2.30
2022,03,29,07,05,2.30
2022,03,29,07,06,2.30
2022,03,29,07,07,2.30
2022,03,29,07,08,2.30
2022,03,29,07,09,2.30
2022,03,29,07,10,2.30
2022,03,29,07,11,2.30
2022,03,29,07,12,2.30
2022,03,29,07,13,2.30
2022,03,29,07,14,2.30
2022,03,29,07,15,2.30
2022,03,29,07,16,2.30
2022,03,29,07,17,2.30
2022,03,29,07,18,2.30
2022,03,29,07,19,2.30
2022,03,29,07,20,2.30
2022,03,29,07,21,2.30
2022,03,29,07,22,2.30
2022,03,29,07,23,2.30
2022,03,29,07,24,2.30
2022,03,29,07,25,2.30
2022,03,29,07,26,2.30
2022,03,29,07,27,2.30
2022,03,29,07,28,2.30
2022,03,29,07,29,2.30
2022,03,29,07,30,2.30
2022,03,29,07,31,2.30
2022,03,29,07,32,2.30
2022,03,29,07,33,2.30
2022,03,29,07,34,2.30
2022,03,29,07,35,2.40
2022,03,29,07,36,2.40
2022,03,29,07,37,2.40
2022,03,29,07,38,2.40
2022,03,29,07,39,2.40
2022,03,29,07,40,2.40
2022,03,29,07,41,2.40
2022,03,29,07,42,2.40
2022,03,29,07,43,2.30
2022,03,29,07,44,2.40
2022,03,29,07,45,2.40
2022,03,29,07,46,2.40
2022,03,29,07,47,2.40
2022,03,29,07,48,2.40
2022,03,29,07,49,2.40
2022,03,29,07,50,2.40
2022,03,29,07,51,2.40
2022,03,29,07,52,2.50
2022,03,29,07,53,2.50
2022,03,29,07,54,2.50
2022,03,29,07,55,2.50
2022,03,29,07,56,2.50
2022,03,29,07,57,2.50
2022,03,29,07,58,2.50
2022,03,29,07,59,2.50
2022,03,29,08,00,2.60
2022,03,29,08,01,2.60
2022,03,29,08,02,2.60
2022,03,29,08,03,2.60
2022,03,29,08,04,2.60
2022,03,29,08,05,2.60
2022,03,29,08,06,2.70
2022,03,29,08,07,2.70
2022,03,29,08,08,2.70
2022,03,29,08,09,2.80
2022,03,29,08,10,2.80
2022,03,29,08,11,2.90
2022,03,29,08,12,2.90
2022,03,29,08,13,2.90
2022,03,29,08,14,3.00
2022,03,29,08,15,3.00
2022,03,29,08,16,3.10
2022,03,29,08,17,3.10
2022,03,29,08,18,3.20
2022,03,29,08,19,3.20
2022,03,29,08,20,3.30
2022,03,29,08,21,3.30
2022,03,29,08,22,3.30
2022,03,29,08,23,3.40
2022,03,29,08,24,3.40
2022,03,29,08,25,3.50
2022,03,29,08,26,3.50
2022,03,29,08,27,3.60
2022,03,29,08,28,3.70
2022,03,29,08,29,3.70
2022,03,29,08,30,3.80
2022,03,29,08,31,3.80
2022,03,29,08,32,3.90
2022,03,29,08,33,3.90
2022,03,29,08,34,3.90
2022,03,29,08,35,4.00
2022,03,29,08,36,4.00
2022,03,29,08,37,4.00
2022,03,29,08,38,4.00
2022,03,29,08,39,4.00
2022,03,29,08,40,4.10
2022,03,29,08,41,4.10
2022,03,29,08,42,4.10
2022,03,29,08,43,4.10
2022,03,29,08,44,4.10
2022,03,29,08,45,4.20
2022,03,29,08,46,4.20
2022,03,29,08,47,4.20
2022,03,29,08,48,4.30
2022,03,29,08,49,4.40
2022,03,29,08,50,4.40
2022,03,29,08,51,4.50
2022,03,29,08,52,4.50
2022,03,29,08,53,4.60
2022,03,29,08,54,4.60
2022,03,29,08,55,4.60
2022,03,29,08,56,4.60
2022,03,29,08,57,4.60
2022,03,29,08,58,4.70
2022,03,29,08,59,4.70
2022,03,29,09,00,4.80
2022,03,29,09,01,4.90
2022,03,29,09,02,4.90
2022,03,29,09,03,5.00
2022,03,29,09,04,5.10
2022,03,29,09,05,5.20
2022,03,29,09,06,5.30
2022,03,29,09,07,5.40
2022,03,29,09,08,5.50
2022,03,29,09,09,5.60
2022,03,29,09,10,5.70
2022,03,29,09,11,5.80
2022,03,29,09,12,6.00
2022,03,29,09,13,6.10
2022,03,29,09,14,6.20
2022,03,29,09,15,6.30
2022,03,29,09,16,6.30
2022,03,29,09,17,6.40
2022,03,29,09,18,6.50
2022,03,29,09,19,6.50
2022,03,29,09,20,6.60
2022,03,29,09,21,6.70
2022,03,29,09,22,6.80
2022,03,29,09,23,6.90
2022,03,29,09,24,7.00
2022,03,29,09,25,7.10
2022,03,29,09,26,7.20
2022,03,29,09,27,7.20
2022,03,29,09,28,7.20
2022,03,29,09,29,7.20
2022,03,29,09,30,7.20
2022,03,29,09,31,7.20
2022,03,29,09,32,7.20
2022,03,29,09,33,7.30
2022,03,29,09,34,7.30
2022,03,29,09,35,7.30
2022,03,29,09,36,7.40
2022,03,29,09,37,7.40
2022,03,29,09,38,7.50
2022,03,29,09,39,7.50
2022,03,29,09,40,7.60
2022,03,29,09,41,7.60
2022,03,29,09,42,7.70
2022,03,29,09,43,7.80
2022,03,29,09,44,7.80
2022,03,29,09,45,7.80
2022,03,29,09,46,7.90
2022,03,29,09,47,7.90
2022,03,29,09,48,7.90
2022,03,29,09,49,8.00
2022,03,29,09,50,8.00
2022,03,29,09,51,8.10
2022,03,29,09,52,8.20
2022,03,29,09,53,8.20
2022,03,29,09,54,8.30
2022,03,29,09,55,8.30
2022,03,29,09,56,8.40
2022,03,29,09,57,8.50
2022,03,29,09,58,8.60
2022,03,29,09,59,8.60
2022,03,29,10,00,8.60
2022,03,29,10,01,8.70
2022,03,29,10,02,8.70
2022,03,29,10,03,8.70
2022,03,29,10,04,8.70
2022,03,29,10,05,8.70
2022,03,29,10,06,8.80
2022,03,29,10,07,8.80
2022,03,29,10,08,8.80
2022,03,29,10,09,8.80
2022,03,29,10,10,8.90
2022,03,29,10,11,8.90
2022,03,29,10,12,9.00
2022,03,29,10,13,9.00
2022,03,29,10,14,9.10
2022,03,29,10,15,9.10
2022,03,29,10,16,9.20
2022,03,29,10,17,9.20
2022,03,29,10,18,9.20
2022,03,29,10,19,9.20
2022,03,29,10,20,9.20
2022,03,29,10,21,9.20
2022,03,29,10,22,9.30
2022,03,29,10,23,9.30
2022,03,29,10,24,9.40
2022,03,29,10,25,9.40
2022,03,29,10,26,9.40
2022,03,29,10,27,9.50
2022,03,29,10,28,9.50
2022,03,29,10,29,9.50
2022,03,29,10,30,9.60
2022,03,29,10,31,9.50
2022,03,29,10,32,9.50
2022,03,29,10,33,9.50
2022,03,29,10,34,9.50
2022,03,29,10,35,9.50
2022,03,29,10,36,9.50
2022,03,29,10,37,9.50
2022,03,29,10,38,9.50
2022,03,29,10,39,9.40
2022,03,29,10,40,9.40
2022,03,29,10,41,9.40
2022,03,29,10,42,9.40
2022,03,29,10,43,9.40
2022,03,29,10,44,9.40
2022,03,29,10,45,9.40
2022,03,29,10,46,9.50
2022,03,29,10,47,9.60
2022,03,29,10,48,9.60
2022,03,29,10,49,9.60
2022,03,29,10,50,9.70
2022,03,29,10,51,9.70
2022,03,29,10,52,9.70
2022,03,29,10,53,9.70
2022,03,29,10,54,9.70
2022,03,29,10,55,9.80
2022,03,29,10,56,9.80
2022,03,29,10,57,9.80
2022,03,29,10,58,9.80
2022,03,29,10,59,9.90
2022,03,29,11,00,9.90
2022,03,29,11,01,9.90
2022,03,29,11,02,10.00
2022,03,29,11,03,10.00
2022,03,29,11,04,10.00
2022,03,29,11,05,10.00
2022,03,29,11,06,10.00
2022,03,29,11,07,9.90
2022,03,29,11,08,9.90
2022,03,29,11,09,9.90
2022,03,29,11,10,9.90
2022,03,29,11,11,9.90
2022,03,29,11,12,9.80
2022,03,29,11,13,9.80
2022,03,29,11,14,9.80
2022,03,29,11,15,9.80
2022,03,29,11,16,9.80
2022,03,29,11,17,9.90
2022,03,29,11,18,9.90
2022,03,29,11,19,9.90
2022,03,29,11,20,9.90
2022,03,29,11,21,9.90
2022,03,29,11,22,10.00
2022,03,29,11,23,10.00
2022,03,29,11,24,10.00
2022,03,29,11,25,10.00
2022,03,29,11,26,10.00
2022,03,29,11,27,10.10
2022,03,29,11,28,10.00
2022,03,29,11,29,10.00
2022,03,29,11,30,9.90
2022,03,29,11,31,9.90
2022,03,29,11,32,9.80
2022,03,29,11,33,9.80
2022,03,29,11,34,9.80
2022,03,29,11,35,9.70
2022,03,29,11,36,9.70
2022,03,29,11,37,9.70
2022,03,29,11,38,9.70
2022,03,29,11,39,9.60
2022,03,29,11,40,9.60
2022,03,29,11,41,9.60
2022,03,29,11,42,9.60
2022,03,29,11,43,9.70
2022,03,29,11,44,9.70
2022,03,29,11,45,9.70
2022,03,29,11,46,9.70
2022,03,29,11,47,9.70
2022,03,29,11,48,9.70
2022,03,29,11,49,9.70
2022,03,29,11,50,9.70
2022,03,29,11,51,9.70
2022,03,29,11,52,9.80
2022,03,29,11,53,9.80
2022,03,29,11,54,9.80
2022,03,29,11,55,9.90
2022,03,29,11,56,9.90
2022,03,29,11,57,10.00
2022,03,29,11,58,10.00
2022,03,29,11,59,10.10
2022,03,29,12,00,10.20
2022,03,29,12,01,10.30
2022,03,29,12,02,10.30
2022,03,29,12,03,10.40
2022,03,29,12,04,10.40
2022,03,29,12,05,10.40
2022,03,29,12,06,10.50
2022,03,29,12,07,10.60
2022,03,29,12,08,10.60
2022,03,29,12,09,10.60
2022,03,29,12,10,10.70
2022,03,29,12,11,10.70
2022,03,29,12,12,10.70
2022,03,29,12,13,10.70
2022,03,29,12,14,10.70
2022,03,29,12,15,10.70
2022,03,29,12,16,10.70
2022,03,29,12,17,10.70
2022,03,29,12,18,10.70
2022,03,29,12,19,10.70
2022,03,29,12,20,10.70
2022,03,29,12,21,10.60
2022,03,29,12,22,10.60
2022,03,29,12,23,10.60
2022,03,29,12,24,10.70
2022,03,29,12,25,10.70
2022,03,29,12,26,10.80
2022,03,29,12,27,10.80
2022,03,29,12,28,10.90
2022,03,29,12,29,10.90
2022,03,29,12,30,10.90
2022,03,29,12,31,10.90
2022,03,29,12,32,11.00
2022,03,29,12,33,11.00
2022,03,29,12,34,11.00
2022,03,29,12,35,11.00
2022,03,29,12,36,11.00
2022,03,29,12,37,11.00
2022,03,29,12,38,11.10
2022,03,29,12,39,11.00
2022,03,29,12,40,11.00
2022,03,29,12,41,10.90
2022,03,29,12,42,10.90
2022,03,29,12,43,10.90
2022,03,29,12,44,11.00
2022,03,29,12,45,11.00
2022,03,29,12,46,11.00
2022,03,29,12,47,11.10
2022,03,29,12,48,11.10
2022,03,29,12,49,11.10
2022,03,29,12,50,11.20
2022,03,29,12,51,11.20
2022,03,29,12,52,11.20
2022,03,29,12,53,11.20
2022,03,29,12,54,11.20
2022,03,29,12,55,11.20
2022,03,29,12,56,11.10
2022,03,29,12,57,11.20
2022,03,29,12,58,11.20
2022,03,29,12,59,11.20
2022,03,29,13,00,11.20
2022,03,29,13,01,11.20
2022,03,29,13,02,11.30
2022,03,29,13,03,11.30
2022,03,29,13,04,11.30
2022,03,29,13,05,11.30
2022,03,29,13,06,11.30
2022,03,29,13,07,11.30
2022,03,29,13,08,11.30
2022,03,29,13,09,11.30
2022,03,29,13,10,11.30
2022,03,29,13,11,11.30
2022,03,29,13,12,11.30
2022,03,29,13,13,11.30
2022,03,29,13,14,11.40
2022,03,29,13,15,11.40
2022,03,29,13,16,11.50
2022,03,29,13,17,11.50
2022,03,29,13,18,11.50
2022,03,29,13,19,11.50
2022,03,29,13,20,11.40
2022,03,29,13,21,11.40
2022,03,29,13,22,11.40
2022,03,29,13,23,11.30
2022,03,29,13,24,11.30
2022,03,29,13,25,11.30
2022,03,29,13,26,11.30
2022,03,29,13,27,11.30
2022,03,29,13,28,11.30
2022,03,29,13,29,11.30
2022,03,29,13,30,11.30
2022,03,29,13,31,11.30
2022,03,29,13,32,11.30
2022,03,29,13,33,11.30
2022,03,29,13,34,11.30
2022,03,29,13,35,11.30
2022,03,29,13,36,11.30
2022,03,29,13,37,11.20
2022,03,29,13,38,11.20
2022,03,29,13,39,11.20
2022,03,29,13,40,11.20
2022,03,29,13,41,11.20
2022,03,29,13,42,11.20
2022,03,29,13,43,11.20
2022,03,29,13,44,11.20
2022,03,29,13,45,11.20
2022,03,29,13,46,11.10
2022,03,29,13,47,11.10
2022,03,29,13,48,11.00
2022,03,29,13,49,11.00
2022,03,29,13,50,11.00
2022,03,29,13,51,10.90
2022,03,29,13,52,10.90
2022,03,29,13,53,11.00
2022,03,29,13,54,11.00
2022,03,29,13,55,11.00
2022,03,29,13,56,11.00
2022,03,29,13,57,11.00
2022,03,29,13,58,11.10
2022,03,29,13,59,11.10
2022,03,29,14,00,11.10
2022,03,29,14,01,11.20
2022,03,29,14,02,11.20
2022,03,29,14,03,11.20
2022,03,29,14,04,11.20
2022,03,29,14,05,11.20
2022,03,29,14,06,11.30
2022,03,29,14,07,11.30
2022,03,29,14,08,11.30
2022,03,29,14,09,11.20
2022,03,29,14,10,11.20
2022,03,29,14,11,11.20
2022,03,29,14,12,11.20
2022,03,29,14,13,11.20
2022,03,29,14,14,11.20
2022,03,29,14,15,11.30
2022,03,29,14,16,11.30
2022,03,29,14,17,11.40
2022,03,29,14,18,11.50
2022,03,29,14,19,11.60
2022,03,29,14,20,11.60
2022,03,29,14,21,11.60
2022,03,29,14,22,11.60
2022,03,29,14,23,11.60
2022,03,29,14,24,11.60
2022,03,29,14,25,11.60
2022,03,29,14,26,11.60
2022,03,29,14,27,11.50
2022,03,29,14,28,11.50
2022,03,29,14,29,11.50
2022,03,29,14,30,11.50
2022,03,29,14,31,11.50
2022,03,29,14,32,11.50
2022,03,29,14,33,11.40
2022,03,29,14,34,11.40
2022,03,29,14,35,11.40
2022,03,29,14,36,11.40
2022,03,29,14,37,11.30
2022,03,29,14,38,11.30
2022,03,29,14,39,11.30
2022,03,29,14,40,11.40
2022,03,29,14,41,11.40
2022,03,29,14,42,11.40
2022,03,29,14,43,11.50
2022,03,29,14,44,11.50
2022,03,29,14,45,11.50
2022,03,29,14,46,11.60
2022,03,29,14,47,11.60
2022,03,29,14,48,11.60
2022,03,29,14,49,11.70
2022,03,29,14,50,11.70
2022,03,29,14,51,11.70
2022,03,29,14,52,11.80
2022,03,29,14,53,11.90
2022,03,29,14,54,11.90
2022,03,29,14,55,12.00
2022,03,29,14,56,12.00
2022,03,29,14,57,12.10
2022,03,29,14,58,12.20
2022,03,29,14,59,12.20
2022,03,29,15,00,12.20
2022,03,29,15,01,12.30
2022,03,29,15,02,12.30
2022,03,29,15,03,12.30
2022,03,29,15,04,12.30
2022,03,29,15,05,12.30
2022,03,29,15,06,12.30
2022,03,29,15,07,12.40
2022,03,29,15,08,12.40
2022,03,29,15,09,12.40
2022,03,29,15,10,12.30
2022,03,29,15,11,12.30
2022,03,29,15,12,12.30
2022,03,29,15,13,12.30
2022,03,29,15,14,12.20
2022,03,29,15,15,12.20
2022,03,29,15,16,12.10
2022,03,29,15,17,12.10
2022,03,29,15,18,12.10
2022,03,29,15,19,12.00
2022,03,29,15,20,12.00
2022,03,29,15,21,12.00
2022,03,29,15,22,12.00
2022,03,29,15,23,11.90
2022,03,29,15,24,11.90
2022,03,29,15,25,11.90
2022,03,29,15,26,11.90
2022,03,29,15,27,11.90
2022,03,29,15,28,11.80
2022,03,29,15,29,11.80
2022,03,29,15,30,11.80
2022,03,29,15,31,11.80
2022,03,29,15,32,11.80
2022,03,29,15,33,11.80
2022,03,29,15,34,11.80
2022,03,29,15,35,11.80
2022,03,29,15,36,11.80
2022,03,29,15,37,11.80
2022,03,29,15,38,11.80
2022,03,29,15,39,11.80
2022,03,29,15,40,11.80
2022,03,29,15,41,11.80
2022,03,29,15,42,11.80
2022,03,29,15,43,11.80
2022,03,29,15,44,11.80
2022,03,29,15,45,11.80
2022,03,29,15,46,11.80
2022,03,29,15,47,11.80
2022,03,29,15,48,11.80
2022,03,29,15,49,11.90
2022,03,29,15,50,11.90
2022,03,29,15,51,11.90
2022,03,29,15,52,11.90
2022,03,29,15,53,11.90
2022,03,29,15,54,11.90
2022,03,29,15,55,11.90
2022,03,29,15,56,11.90
2022,03,29,15,57,11.80
2022,03,29,15,58,11.80
2022,03,29,15,59,11.80
2022,03,29,16,00,11.80
2022,03,29,16,01,11.70
2022,03,29,16,02,11.70
2022,03,29,16,03,11.70
2022,03,29,16,04,11.70
2022,03,29,16,05,11.60
2022,03,29,16,06,11.60
2022,03,29,16,07,11.60
2022,03,29,16,08,11.60
2022,03,29,16,09,11.60
2022,03,29,16,10,11.60
2022,03,29,16,11,11.60
2022,03,29,16,12,11.60
2022,03,29,16,13,11.50
2022,03,29,16,14,11.50
2022,03,29,16,15,11.60
2022,03,29,16,16,11.60
2022,03,29,16,17,11.60
2022,03,29,16,18,11.70
2022,03,29,16,19,11.70
2022,03,29,16,20,11.80
2022,03,29,16,21,11.80
2022,03,29,16,22,11.80
2022,03,29,16,23,11.80
2022,03,29,16,24,11.80
2022,03,29,16,25,11.80
2022,03,29,16,26,11.80
2022,03,29,16,27,11.80
2022,03,29,16,28,11.80
2022,03,29,16,29,11.80
2022,03,29,16,30,11.80
2022,03,29,16,31,11.70
2022,03,29,16,32,11.70
2022,03,29,16,33,11.70
2022,03,29,16,34,11.70
2022,03,29,16,35,11.70
2022,03,29,16,36,11.60
2022,03,29,16,37,11.60
2022,03,29,16,38,11.60
2022,03,29,16,39,11.60
2022,03,29,16,40,11.60
2022,03,29,16,41,11.60
2022,03,29,16,42,11.60
2022,03,29,16,43,11.70
2022,03,29,16,44,11.70
2022,03,29,16,45,11.80
2022,03,29,16,46,11.80
2022,03,29,16,47,11.90
2022,03,29,16,48,11.90
2022,03,29,16,49,11.90
2022,03,29,16,50,11.90
2022,03,29,16,51,11.90
2022,03,29,16,52,11.90
2022,03,29,16,53,11.90
2022,03,29,16,54,11.90
2022,03,29,16,55,11.90
2022,03,29,16,56,11.90
2022,03,29,16,57,11.90
2022,03,29,16,58,11.90
2022,03,29,16,59,11.80
2022,03,29,17,00,11.80
2022,03,29,17,01,11.80
2022,03,29,17,02,11.70
2022,03,29,17,03,11.70
2022,03,29,17,04,11.70
2022,03,29,17,05,11.70
2022,03,29,17,06,11.70
2022,03,29,17,07,11.70
2022,03,29,17,08,11.70
2022,03,29,17,09,11.70
2022,03,29,17,10,11.60
2022,03,29,17,11,11.60
2022,03,29,17,12,11.60
2022,03,29,17,13,11.50
2022,03,29,17,14,11.50
2022,03,29,17,15,11.50
2022,03,29,17,16,11.50
2022,03,29,17,17,11.40
2022,03,29,17,18,11.50
2022,03,29,17,19,11.50
2022,03,29,17,20,11.40
2022,03,29,17,21,11.40
2022,03,29,17,22,11.40
2022,03,29,17,23,11.40
2022,03,29,17,24,11.40
2022,03,29,17,25,11.40
2022,03,29,17,26,11.30
2022,03,29,17,27,11.30
2022,03,29,17,28,11.30
2022,03,29,17,29,11.30
2022,03,29,17,30,11.40
2022,03,29,17,31,11.40
2022,03,29,17,32,11.40
2022,03,29,17,33,11.40
2022,03,29,17,34,11.40
2022,03,29,17,35,11.40
2022,03,29,17,36,11.40
2022,03,29,17,37,11.40
2022,03,29,17,38,11.40
2022,03,29,17,39,11.40
2022,03,29,17,40,11.40
2022,03,29,17,41,11.40
2022,03,29,17,42,11.40
2022,03,29,17,43,11.40
2022,03,29,17,44,11.40
2022,03,29,17,45,11.50
2022,03,29,17,46,11.50
2022,03,29,17,47,11.50
2022,03,29,17,48,11.50
2022,03,29,17,49,11.50
2022,03,29,17,50,11.50